[[{"header":{"parameterUnit":"m.s-1","parameterCategory":1,"la1":30.2991,"la2":30.254,"lo1":-89.0895,"lo2":-89.0444,"dy":0.0017,"dx":0.0017,"nx":28,"ny":28,"refTime":"2025-08-29T09:00:00:Z","depth":0,"parameterNumber":2,"parameterNumberName":"U-component_of_WINDS"},"data":[0,0,0,0,0,0,0,0,0,0,0,0,0,0,0,0,0,0,0,0,0,0,0,0,0,0,0,0,0,0,0,0,0,0,0,0,0,0,0,0,0,0,0,0,0,0,0,0,0,0,0,0,0,0,0,0,0,0,-1.4267,-1.4267,0,-1.4267,-1.4267,-1.4267,-1.4269,-1.4269,-1.4269,-1.4269,-1.4267,-1.4267,-1.4267,0,0,0,0,0,0,0,0,0,0,0,0,0,-1.427,-1.427,-1.4267,-1.4267,-1.4267,-1.4267,-1.4267,-1.4267,-1.4269,-1.4269,-1.4269,-1.4269,-1.4267,-1.4267,-1.4267,0,0,0,0,0,0,0,0,0,0,0,0,0,-1.4269,-1.427,-1.4267,-1.4268,-1.4268,-1.4267,-1.4267,-1.4267,-1.4269,-1.4269,-1.4269,-1.4269,-1.4267,-1.4267,-1.4267,-1.4263,0,0,-1.4266,-1.4266,0,0,0,0,0,0,0,0,-1.4269,-1.4269,-1.4268,-1.4268,-1.4268,-1.4268,-1.4267,-1.4265,-1.4269,-1.4269,-1.4269,-1.4269,-1.4267,-1.4267,-1.4267,-1.4263,-1.4263,-1.4266,-1.4266,-1.4266,-1.4266,0,0,0,0,0,0,0,-1.4269,-1.4269,-1.4267,-1.4268,-1.4268,-1.4269,-1.4269,-1.4267,-1.4267,-1.4269,-1.4269,-1.4269,-1.4267,-1.4267,-1.4266,-1.4263,-1.4266,-1.4266,-1.4266,-1.4266,-1.4258,-1.4257,0,0,0,0,0,0,-1.4269,-1.4269,-1.4267,-1.4267,-1.4269,-1.4269,-1.4269,-1.4268,-1.4267,-1.4267,-1.4269,-1.4269,-1.4267,-1.4267,-1.4266,-1.4263,-1.4266,-1.4266,-1.4266,-1.4258,-1.4258,-1.4257,0,0,0,0,0,0,-1.4269,-1.4269,-1.4267,-1.4268,-1.4268,-1.4268,-1.4268,-1.4268,-1.4267,-1.4267,-1.4267,-1.4268,-1.4267,-1.4267,-1.4264,-1.4263,-1.4266,-1.4266,-1.4258,-1.4258,-1.4257,-1.4255,0,0,0,0,0,0,-1.4269,-1.4269,-1.4268,-1.4268,-1.4268,-1.4265,-1.4268,-1.4268,-1.4267,-1.4267,-1.4267,-1.4267,-1.4267,-1.4265,-1.4264,-1.4262,-1.4265,-1.4258,-1.4258,-1.4257,-1.4255,-1.4255,-1.4254,0,0,0,0,0,-1.4269,-1.4267,-1.4268,-1.4268,-1.4266,-1.4265,-1.4265,-1.4266,-1.4267,-1.4266,-1.4266,-1.4267,-1.4263,-1.4264,-1.4264,-1.4262,-1.4258,-1.4258,-1.4258,-1.4255,-1.4255,-1.4254,0,0,0,0,0,0,-1.4266,-1.4267,-1.4268,-1.4266,-1.4265,-1.4265,-1.4264,-1.4265,-1.4264,-1.4264,-1.4265,-1.4265,-1.4262,-1.4262,-1.4263,-1.4259,-1.4261,-1.426,-1.4259,-1.4259,-1.4258,-1.4258,-1.4265,0,0,0,0,0,-1.4265,-1.4264,-1.4265,-1.4263,-1.4263,-1.4263,-1.4263,-1.4263,-1.4263,-1.4263,-1.4263,-1.4262,-1.4261,-1.426,-1.4258,-1.4255,-1.4255,-1.4254,-1.4253,-1.4253,-1.4253,-1.4251,-1.4251,-1.4257,-1.4257,-1.4257,0,0,-1.4263,-1.4263,-1.4263,-1.4262,-1.4262,-1.4261,-1.4263,-1.4262,-1.4261,-1.4262,-1.426,-1.426,-1.4259,-1.4257,-1.4256,-1.4256,-1.4251,-1.4253,-1.4253,-1.4252,-1.4251,-1.425,-1.425,-1.4256,-1.4256,-1.4256,0,0,-1.4259,-1.4259,-1.4257,-1.4257,-1.4257,-1.4258,-1.4257,-1.4257,-1.4258,-1.4256,-1.4257,-1.4256,-1.4253,-1.4253,-1.4252,-1.4248,-1.4249,-1.4248,-1.4246,-1.4244,-1.4244,-1.4243,-1.4242,-1.4241,-1.4248,-1.4248,-1.4248,0,-1.4256,-1.4254,-1.4256,-1.4255,-1.4254,-1.4256,-1.4255,-1.4254,-1.4254,-1.4253,-1.4254,-1.4252,-1.4251,-1.4249,-1.4248,-1.4247,-1.4247,-1.4248,-1.4244,-1.4243,-1.4243,-1.4242,-1.4241,-1.4247,-1.4247,-1.4247,-1.4247,0,-1.4251,-1.425,-1.4249,-1.4249,-1.4248,-1.4247,-1.4248,-1.4247,-1.4248,-1.4248,-1.4246,-1.4246,-1.4245,-1.4244,-1.4245,-1.4242,-1.4242,-1.4244,-1.4245,-1.4242,-1.4241,-1.424,-1.4247,-1.4247,-1.4247,-1.4247,0,0,-1.4244,-1.4245,-1.4245,-1.4245,-1.4245,-1.4244,-1.4243,-1.4242,-1.4242,-1.4241,-1.424,-1.4238,-1.424,-1.4239,-1.424,-1.4238,-1.4235,-1.424,-1.424,-1.4239,-1.4232,-1.4231,-1.423,-1.4236,-1.4236,-1.4236,-1.4232,0,-1.424,-1.4238,-1.4239,-1.4237,-1.4236,-1.4238,-1.4237,-1.4237,-1.4237,-1.4236,-1.4237,-1.4236,-1.4237,-1.4237,-1.4236,-1.4236,-1.4234,-1.4236,-1.4235,-1.4235,-1.4235,-1.423,-1.4229,-1.4225,-1.4232,-1.4232,-1.4231,0,-1.4234,-1.4234,-1.4232,-1.4233,-1.4232,-1.4231,-1.4231,-1.423,-1.423,-1.4231,-1.423,-1.4232,-1.423,-1.4232,-1.423,-1.4231,-1.4231,-1.4231,-1.4231,-1.4231,-1.4233,-1.4229,-1.4224,-1.4223,-1.4231,-1.4231,-1.4231,0,-1.423,-1.4229,-1.4227,-1.4227,-1.4228,-1.4228,-1.4228,-1.4228,-1.4228,-1.4227,-1.4227,-1.4227,-1.4226,-1.4226,-1.4226,-1.4228,-1.4224,-1.4226,-1.4224,-1.4224,-1.4223,-1.4223,-1.4218,-1.4223,-1.4223,-1.4223,-1.4223,0,-1.4224,-1.4223,-1.4225,-1.4224,-1.4223,-1.4224,-1.4223,-1.4223,-1.4223,-1.4222,-1.4224,-1.4223,-1.4225,-1.4224,-1.4224,-1.4223,-1.4222,-1.4223,-1.4223,-1.4222,-1.4222,-1.4222,-1.4222,-1.4223,-1.4223,-1.4223,-1.4223,0,-1.4219,-1.422,-1.4219,-1.422,-1.422,-1.4219,-1.422,-1.4219,-1.422,-1.4219,-1.4219,-1.422,-1.4219,-1.422,-1.4219,-1.4219,-1.4217,-1.4218,-1.4217,-1.4217,-1.4215,-1.4215,-1.4209,-1.4208,-1.4214,-1.4214,-1.4214,0,-1.4215,-1.4214,-1.4215,-1.4215,-1.4216,-1.4215,-1.4215,-1.4217,-1.4216,-1.4217,-1.4216,-1.4215,-1.4215,-1.4213,-1.4214,-1.4213,-1.4214,-1.4211,-1.4213,-1.4213,-1.4214,-1.4214,-1.4213,-1.4211,-1.4211,-1.4211,-1.4211,0,-1.4209,-1.421,-1.421,-1.421,-1.421,-1.421,-1.421,-1.421,-1.4212,-1.4211,-1.4211,-1.421,-1.421,-1.4209,-1.4209,-1.4209,-1.421,-1.421,-1.421,-1.4209,-1.4209,-1.4209,-1.4216,-1.421,-1.421,-1.421,-1.421,-1.421,-1.4204,-1.4203,-1.4204,-1.4204,-1.4205,-1.4205,-1.4204,-1.4205,-1.4205,-1.4205,-1.4206,-1.4205,-1.4205,-1.4205,-1.4205,-1.4205,-1.4205,-1.4205,-1.4205,-1.4204,-1.4204,-1.4209,-1.4204,-1.4205,-1.4205,-1.4205,-1.4205,0,-1.4198,-1.4199,-1.4199,-1.4199,-1.4199,-1.4201,-1.4201,-1.4201,-1.42,-1.4201,-1.4201,-1.42,-1.42,-1.42,-1.42,-1.4199,-1.42,-1.4199,-1.4199,-1.4199,-1.4203,-1.4204,-1.4199,-1.4199,-1.4199,-1.4199,-1.4199,-1.4199,-1.4195,-1.4194,-1.4195,-1.4194,-1.4195,-1.4194,-1.4194,-1.4195,-1.4195,-1.4195,-1.4194,-1.4195,-1.4196,-1.4195,-1.4195,-1.4195,-1.4195,-1.4194,-1.4194,-1.4198,-1.4199,-1.4199,-1.42,-1.4194,-1.4194,-1.419,-1.419,-1.419]},{"header":{"parameterUnit":"m.s-1","parameterCategory":1,"la1":30.2991,"la2":30.254,"lo1":-89.0895,"lo2":-89.0444,"dy":0.0017,"dx":0.0017,"nx":28,"ny":28,"refTime":"2025-08-29T09:00:00:Z","depth":0,"parameterNumber":3,"parameterNumberName":"V-component_of_WINDS"},"data":[0,0,0,0,0,0,0,0,0,0,0,0,0,0,0,0,0,0,0,0,0,0,0,0,0,0,0,0,0,0,0,0,0,0,0,0,0,0,0,0,0,0,0,0,0,0,0,0,0,0,0,0,0,0,0,0,0,0,2.2819,2.2816,0,2.2567,2.2564,2.2561,2.2331,2.2328,2.2325,2.2323,2.2062,2.2057,2.2053,0,0,0,0,0,0,0,0,0,0,0,0,0,2.31,2.3096,2.2819,2.2816,2.2813,2.2568,2.2564,2.2561,2.2331,2.2328,2.2325,2.2321,2.2063,2.2058,2.2053,0,0,0,0,0,0,0,0,0,0,0,0,0,2.2926,2.3094,2.282,2.2669,2.2653,2.2568,2.2564,2.256,2.2332,2.2328,2.2324,2.232,2.2065,2.2058,2.2052,2.2095,0,0,2.2032,2.2029,0,0,0,0,0,0,0,0,2.2936,2.2916,2.2694,2.2679,2.2661,2.2476,2.2567,2.2404,2.2333,2.2454,2.2323,2.2318,2.2203,2.2185,2.2146,2.2083,2.2072,2.2031,2.2027,2.2025,2.2023,0,0,0,0,0,0,0,2.2948,2.2925,2.2719,2.2691,2.2671,2.2613,2.2584,2.2535,2.2355,2.2443,2.2426,2.2399,2.2193,2.2153,2.2139,2.2068,2.2032,2.2026,2.2022,2.2019,2.2027,2.2031,0,0,0,0,0,0,2.2984,2.2937,2.2727,2.2712,2.2791,2.2612,2.2579,2.254,2.2355,2.2322,2.2403,2.2389,2.2166,2.2146,2.2129,2.2166,2.2025,2.2019,2.2015,2.2023,2.2028,2.2032,0,0,0,0,0,0,2.2991,2.2967,2.2737,2.2819,2.2786,2.2611,2.2569,2.2537,2.2497,2.2324,2.2291,2.2396,2.2162,2.2138,2.2105,2.2153,2.2016,2.201,2.2018,2.2024,2.203,2.2242,0,0,0,0,0,0,2.3,2.2971,2.2986,2.2822,2.2782,2.272,2.2572,2.2535,2.2487,2.2466,2.2309,2.2278,2.2157,2.2116,2.2099,2.2142,2.2005,2.2013,2.2021,2.2028,2.223,2.2255,2.2276,0,0,0,0,0,2.3011,2.3055,2.2988,2.2964,2.2797,2.2723,2.27,2.256,2.2492,2.2504,2.2394,2.2283,2.2152,2.2115,2.2093,2.2135,2.2009,2.2018,2.2027,2.222,2.225,2.2276,0,0,0,0,0,0,2.3228,2.3031,2.2954,2.2947,2.2854,2.2684,2.2696,2.2597,2.252,2.2504,2.2334,2.23,2.2287,2.2208,2.217,2.2167,2.2065,2.2071,2.2219,2.2246,2.2269,2.2287,2.1999,0,0,0,0,0,2.3276,2.3232,2.3062,2.3072,2.3029,2.2872,2.2834,2.2735,2.2631,2.259,2.2476,2.2379,2.2315,2.2277,2.2209,2.2219,2.218,2.2237,2.226,2.228,2.2286,2.2285,2.2308,2.2063,2.2063,2.2062,0,0,2.3372,2.3259,2.3242,2.3113,2.3029,2.2987,2.284,2.2801,2.2768,2.2583,2.2545,2.246,2.234,2.2329,2.2318,2.2263,2.2346,2.2292,2.2309,2.2303,2.2297,2.232,2.2341,2.2069,2.2068,2.2067,0,0,2.3526,2.3438,2.3436,2.3356,2.3231,2.3126,2.3127,2.2972,2.2909,2.2869,2.2729,2.2688,2.2582,2.2502,2.2448,2.2576,2.2471,2.2559,2.2678,2.2679,2.2699,2.2715,2.2759,2.2777,2.2566,2.2566,2.2567,0,2.3662,2.3594,2.3447,2.3418,2.3365,2.3198,2.3195,2.3124,2.2983,2.295,2.2891,2.2755,2.2663,2.2631,2.2663,2.2625,2.2619,2.2574,2.2708,2.2723,2.2736,2.2776,2.2793,2.2578,2.2576,2.2575,2.2574,0,2.3766,2.3722,2.3735,2.3605,2.3554,2.3539,2.3389,2.3355,2.3262,2.3164,2.3126,2.301,2.2915,2.2901,2.2809,2.2856,2.2825,2.274,2.2633,2.2773,2.2808,2.2822,2.2594,2.259,2.2586,2.2584,0,0,2.4046,2.3838,2.3845,2.3785,2.3637,2.3599,2.3576,2.3485,2.3459,2.3369,2.3345,2.3261,2.3181,2.312,2.3017,2.3019,2.3127,2.2932,2.2927,2.2971,2.3172,2.3236,2.3256,2.3058,2.3061,2.3063,2.3181,0,2.4174,2.4123,2.3992,2.3982,2.3938,2.3781,2.3761,2.3668,2.3577,2.3526,2.3424,2.3367,2.3267,2.3229,2.3224,2.3116,2.3165,2.3105,2.3032,2.3032,2.3065,2.3274,2.3341,2.3459,2.3194,2.3196,2.3198,0,2.4316,2.4237,2.4224,2.4079,2.4055,2.404,2.3946,2.3901,2.3793,2.3726,2.366,2.3548,2.3514,2.3419,2.3371,2.3333,2.3296,2.3239,2.324,2.3226,2.3122,2.3264,2.3493,2.351,2.3218,2.3217,2.3215,0,2.452,2.4411,2.4388,2.4341,2.4172,2.4165,2.4094,2.3982,2.3937,2.3855,2.3824,2.3741,2.3694,2.3632,2.35,2.3443,2.3466,2.3359,2.3409,2.3412,2.3418,2.3419,2.3643,2.3399,2.3399,2.3399,2.3398,0,2.4675,2.4672,2.4478,2.4464,2.4456,2.4306,2.4302,2.4216,2.4119,2.4085,2.3944,2.3915,2.3744,2.3695,2.3592,2.3568,2.3548,2.3493,2.3465,2.3504,2.3511,2.3475,2.3463,2.3403,2.3402,2.3401,2.3401,0,2.49,2.477,2.4735,2.4579,2.454,2.4541,2.4407,2.4387,2.4289,2.4248,2.423,2.4075,2.4011,2.3875,2.3773,2.3703,2.3703,2.3655,2.374,2.3722,2.3779,2.3775,2.3985,2.4004,2.3753,2.3755,2.3757,0,2.5006,2.5,2.4845,2.4813,2.4748,2.4698,2.4652,2.4505,2.4462,2.434,2.4335,2.426,2.4192,2.4097,2.3975,2.3897,2.3844,2.3923,2.3831,2.3871,2.3843,2.3844,2.3843,2.3943,2.3947,2.3949,2.3952,0,2.5208,2.5145,2.5083,2.5001,2.495,2.4877,2.4796,2.4778,2.4612,2.4571,2.4505,2.4452,2.435,2.4277,2.4181,2.4107,2.4002,2.3983,2.3989,2.4028,2.4077,2.405,2.3794,2.3977,2.3975,2.3973,2.3972,2.3971,2.5375,2.5363,2.5252,2.5189,2.5114,2.5043,2.5017,2.4917,2.4859,2.4764,2.4682,2.4623,2.4516,2.4376,2.431,2.4261,2.4209,2.422,2.4222,2.4226,2.4242,2.4088,2.4243,2.4243,2.4242,2.4241,2.424,0,2.5568,2.549,2.5434,2.5326,2.5277,2.5186,2.5093,2.5057,2.5008,2.4917,2.4854,2.4779,2.4708,2.4583,2.4501,2.4487,2.4437,2.447,2.4468,2.4453,2.4294,2.4296,2.4512,2.4512,2.4512,2.4512,2.4512,2.4512,2.5662,2.5637,2.5561,2.5498,2.5418,2.5361,2.5316,2.525,2.5177,2.5099,2.504,2.496,2.4855,2.4766,2.4697,2.4662,2.4638,2.4687,2.4637,2.449,2.4464,2.444,2.444,2.4683,2.4684,2.4798,2.48,2.4801]}]]